Regional Weather Roundup
Issued by NWS

Home | Current Version | Previous Version | Graphics & Text | Print | Product List | Glossary On
Versions: 1 2 3 4 5 6 7 8 9 10 11 12 13 14 15 16 17 18 19 20 21 22 23 24 25 26 27 28 29 30 31 32 33 34 35 36 37 38 39 40 41 42 43 44 45 46 47 48 49 50
000
ASUS43 KMKX 051359
RWRWI

WISCONSIN REGIONAL WEATHER ROUNDUP
NATIONAL WEATHER SERVICE MILWAUKEE/SULLIVAN WI
800 AM CST THU MAR 05 2015

NOTE: "FAIR" INDICATES FEW OR NO CLOUDS BELOW 12,000 FEET WITH NO
SIGNIFICANT WEATHER AND/OR OBSTRUCTIONS TO VISIBILITY.

WIZ001-002-006>008-014>016-023>028-051500-
NORTHWEST WISCONSIN

CITY           SKY/WX    TMP DP  RH WIND       PRES   REMARKS
SUPERIOR ARPT  MOSUNNY  -14 -19  76 SW6       30.46R WCI -28
ASHLAND        SUNNY     -9 -16  71 SW10      30.43R WCI -27
HAYWARD        PTSUNNY  -21 -25  81 CALM      30.41R
SIREN          MOSUNNY  -20 -27  71 CALM      30.45R
CUMBERLAND     PTSUNNY  -20 -26  76 CALM      30.41R
RICE LAKE      PTSUNNY  -21 -27  72 CALM      30.44R
CHETEK         PTSUNNY  -17 -23  77 CALM      30.44R
LADYSMITH      MOSUNNY  -21 -28  69 CALM      30.41R
EAU CLAIRE     NOT AVBL
MENOMONIE      MOSUNNY   -8 -15  71 W3        30.47R
NEW RICHMOND   MOSUNNY  -12 -17  77 CALM      30.46S
OSCEOLA        MOSUNNY  -17 -23  75 CALM      30.51R
$$

WIZ003>005-009-010-017-018-051500-
NORTH CENTRAL WISCONSIN

CITY           SKY/WX    TMP DP  RH WIND       PRES   REMARKS
MANITOWISH WTR SUNNY    -23 -29  73 CALM      30.31R
ARBOR VITAE    SUNNY    -18 -26  69 CALM      30.31R
WOODRUFF       SUNNY    -18 -26  69 CALM      30.31R
RHINELANDER    MOSUNNY  -14 -20  74 W5        30.32R WCI -26
EAGLE RIVER    MOSUNNY  -20 -27  68 CALM      30.30R
LAND O LAKES   SUNNY    -17 -23  73 CALM      30.30R
PHILLIPS       MOSUNNY  -22 -28  75 CALM      30.34R
TOMAHAWK       MOSUNNY  -19 -25  75 CALM      30.34R
MEDFORD        MOSUNNY  -14 -19  79 CALM      30.35R
MERRILL        MOSUNNY  -19 -25  73 CALM      30.36R
$$

WIZ029-030-035-036-043>047-051500-
CENTRAL WISCONSIN

CITY           SKY/WX    TMP DP  RH WIND       PRES   REMARKS
WAUSAU         MOSUNNY   -7 -16  65 NW6       30.38R WCI -20
MOSINEE        SUNNY     -8 -17  65 NW3       30.39R
MARSHFIELD     MOSUNNY   -7 -15  68 NW6       30.40R WCI -20
STEVENS POINT  MOSUNNY  -15 -21  75 CALM      30.41R
WAUPACA        SUNNY     -1 -12  60 W3        30.43R
WAUTOMA        NOT AVBL
WISC RAPIDS    MOSUNNY   -7 -14  71 CALM      30.45R
CAMP DOUGLAS   NOT AVBL
$$

WIZ011>013-019>022-031-037>040-048>050-051500-
NORTHEAST WISCONSIN

CITY           SKY/WX    TMP DP  RH WIND       PRES   REMARKS
ANTIGO         SUNNY    -16 -20  81 CALM      30.33R
SHAWANO        SUNNY     -3 -13  63 CALM      30.42R
OCONTO         SUNNY     -5 -13  66 NW3       30.43R
STURGEON BAY   SUNNY     -6 -13  71 W3        30.43R
GREEN BAY      SUNNY     -3 -11  68 SW3       30.44R
MANITOWOC      NOT AVBL
APPLETON       SUNNY     -6 -15  65 W9        30.42R WCI -22
CLINTONVILLE   SUNNY     -4 -13  65 NW3       30.41R
OSHKOSH        SUNNY      0 -11  59 W9        30.44R WCI -15
$$

WIZ032>034-041-042-053>061-051500-
SOUTHWEST WISCONSIN

CITY           SKY/WX    TMP DP  RH WIND       PRES   REMARKS
LA CROSSE      SUNNY     -1 -10  65 CALM      30.52R
SPARTA         SUNNY    -11 -17  74 CALM      30.48R
VIROQUA        SUNNY     -5 -11  75 W5        30.42R WCI -16
BOSCOBEL       SUNNY     -4  -9  79 SW5       30.53R WCI -15
PRAIRIE DU CHI SUNNY     -4 -13  66 W3        30.53R
PLATTEVILLE    SUNNY     -6 -11  79 W5        30.46R WCI -17
$$

WIZ056-057-062-063-064-067-068-051500-
SOUTH CENTRAL WISCONSIN

CITY           SKY/WX    TMP DP  RH WIND       PRES   REMARKS
REEDSBURG      SUNNY     -3 -10  70 CALM      30.46R
BARABOO/DELLS  SUNNY     -2 -12  63 CALM      30.45R
LONE ROCK      NOT AVBL
MINERAL POINT  SUNNY      0  -9  65 CALM      30.44R
MADISON        SUNNY      2 -10  57 NW5       30.47R WCI  -8
MIDDLETON      SUNNY      0 -11  60 W3        30.46R
WATERTOWN      SUNNY      1  -9  63 NW3       30.45R
MONROE         MOSUNNY    1  -8  66 NW7       30.43R WCI -11
JANESVILLE     SUNNY     -6 -11  77 CALM      30.46R
$$

WIZ051-052-058>065-066-070>072-051500-
SOUTHEAST WISCONSIN

CITY           SKY/WX    TMP DP  RH WIND       PRES   REMARKS
MILWAUKEE      MOSUNNY    6 -10  47 NW6       30.45R WCI  -4
WAUKESHA       NOT AVBL
MILWAUKEE/TIMM SUNNY      3 -11  51 NW6       30.46R WCI  -8
RACINE         MOSUNNY    4 -10  52 NW9       30.46R WCI -10
BURLINGTON     MOSUNNY   -8 -15  72 W7        30.44R WCI -23
KENOSHA        MOSUNNY    1 -10  60 NW7       30.43R WCI -12
FOND DU LAC    SUNNY      1 -11  57 W6        30.45R WCI -10
SHEBOYGAN      SUNNY      1 -11  57 NW8       30.45R WCI -13
WEST BEND      SUNNY      1  -9  60 CALM      30.44R
JUNEAU         SUNNY     -2 -10  66 CALM      30.45R
$$

LSZ147-162-051500-
LAKE SUPERIOR

STATION/POSITION TIME  TEMP    WIND        PRES    WAVE
                       AIR SEA DIR/SP/G            HT/PER
                 (UTC) (F)     (DEG/KT/KT) (MB)    (FT/S)
DEVILS ISLAND    1300    4     280/ 10/ 13 1030.8R
PORT WING        1340   -9     190/  6/  8 1030.8R
SAXON HARBOR     1300   -7     200/  9/ 11 1029.8R
$$

LMZ867-665-643>646-051500-
LAKE MICHIGAN

STATION/POSITION TIME  TEMP    WIND        PRES    WAVE
                       AIR SEA DIR/SP/G            HT/PER
                 (UTC) (F)     (DEG/KT/KT) (MB)    (FT/S)
NORTHPORT PIER   1315   -1     290/  6/ 12 1029.5R
SISTER BAY       1313    2     280/  7/  8   N/A
KEWAUNEE LAKESHO 1300   -4     300/  4/  7 1028.7R
SHEBOYGAN LAKESH 1300    2     300/  8/ 10 1031.9R
PORT WASHINGTON  1300    1     300/  8/  9 1031.2R
MILWAUKEE LAKESH 1300    5     310/ 10/ 13   N/A
KENOSHA   LAKESH 1300    2     290/ 11/ 13 1029.8R
$$

TC  - TEMPERATURE IN CELSIUS
VSB - VISIBILITY IN STATUTE MILES
WCI - WIND CHILL INDEX
HX  - HEAT INDEX




USA.gov is the U.S. government's official web portal to all federal, state and local government web resources and services.